Weather reports worldwide

Advertisment
Hereford/Credenhill, United Kingdom (3522): temperature & dewpoint: 23.04.2017 06:00:00 - 29.04.2017 06:00:00 (BST)Hereford/Credenhill, United Kingdom (3522): temperature -20cm & temperature -100cm: 23.04.2017 06:00:00 - 29.04.2017 06:00:00 (BST)Hereford/Credenhill, United Kingdom (3522): wind speed & gusts: 23.04.2017 06:00:00 - 29.04.2017 06:00:00 (BST)Hereford/Credenhill, United Kingdom (3522): wind direction: 23.04.2017 06:00:00 - 29.04.2017 06:00:00 (BST)Hereford/Credenhill, United Kingdom (3522): reduced air pressure: 23.04.2017 06:00:00 - 29.04.2017 06:00:00 (BST)Hereford/Credenhill, United Kingdom (3522): visibility: 23.04.2017 06:00:00 - 29.04.2017 06:00:00 (BST)Hereford/Credenhill, United Kingdom (3522): precipitation: 23.04.2017 06:00:00 - 29.04.2017 06:00:00 (BST)
Date & Time tt [°C] td [°C] tt -20cm [°C] tt -100cm [°C] ff [km/h] ff [kn] fx [km/h] fx [kn] dd ppp [hPa] vv [km] rr [mm]
29.04.2017 06:00:00 4,6 3,4 - - 2 1 - - NNE 1015,6 35 0,0
29.04.2017 05:00:00 3,6 2,8 - - 4 2 - - NW 1015,8 24 0,0
29.04.2017 04:00:00 4,0 2,9 - - 2 1 - - NNE 1016,1 22 0,0
29.04.2017 03:00:00 4,7 4,2 - - 4 2 - - SSW 1016,3 14 0,0
29.04.2017 02:00:00 4,3 4,1 - - 4 2 - - SSW 1016,7 12 0,0
29.04.2017 01:00:00 3,4 3,2 - - 4 2 - - WSW 1017,1 17 0,0
29.04.2017 00:00:00 3,7 2,7 - - 0 0 - - N 1017,1 19 0,0
28.04.2017 23:00:00 6,5 4,1 - - 4 2 - - W 1017,2 40 0,0
28.04.2017 22:00:00 8,2 4,1 - - 5 3 - - W 1017,1 50 0,0
28.04.2017 21:00:00 8,9 4,8 - - 9 5 - - W 1016,8 40 0,0
28.04.2017 20:00:00 10,0 5,3 - - 9 5 - - W 1016,6 50 0,0
28.04.2017 19:00:00 10,9 5,2 - - 15 8 - - W 1016,4 40 0,0
28.04.2017 18:00:00 11,9 5,9 - - 11 6 - - W 1016,6 45 0,0
28.04.2017 17:00:00 11,9 5,3 - - 11 6 - - W 1016,7 35 0,0
28.04.2017 16:00:00 12,5 5,1 - - 9 5 - - WNW 1016,7 30 0,0
28.04.2017 15:00:00 13,4 5,2 - - 5 3 - - WNW 1016,8 28 0,0
28.04.2017 14:00:00 12,5 4,9 - - 11 6 - - WNW 1017,1 40 0,0
28.04.2017 13:00:00 12,6 6,0 - - 11 6 - - W 1017,1 19 0,0
28.04.2017 12:00:00 12,3 5,1 - - 8 4 - - WNW 1017,5 30 0,0
28.04.2017 11:00:00 11,8 5,5 - - 9 5 - - WNW 1017,7 30 0,0
28.04.2017 10:00:00 10,3 5,3 9,7 9,9 11 6 - - W 1018,2 30 0,0
28.04.2017 09:00:00 9,0 5,6 - - 11 6 - - WNW 1018,5 35 0,0
28.04.2017 08:00:00 7,3 5,1 - - 9 5 - - WNW 1018,4 30 0,0
28.04.2017 07:00:00 6,0 4,3 - - 8 4 - - WNW 1018,6 30 0,0
28.04.2017 06:00:00 5,2 3,9 - - 4 2 - - WNW 1018,4 29 0,0
28.04.2017 05:00:00 4,1 3,0 - - 5 3 - - NW 1018,5 26 0,0
28.04.2017 04:00:00 5,2 3,6 - - 4 2 - - W 1018,3 30 0,0
28.04.2017 03:00:00 5,2 3,8 - - 9 5 - - W 1018,5 40 0,0
28.04.2017 02:00:00 4,7 3,4 - - 5 3 - - W 1018,8 40 0,0
28.04.2017 01:00:00 5,3 3,4 - - 8 4 - - WNW 1018,9 50 0,0
28.04.2017 00:00:00 6,0 4,1 - - 9 5 - - WNW 1019,0 40 0,0
27.04.2017 23:00:00 5,9 3,4 - - 8 4 - - WNW 1019,0 45 0,0
27.04.2017 22:00:00 7,2 4,0 - - 8 4 - - W 1018,8 45 0,0
27.04.2017 21:00:00 8,6 4,3 - - 11 6 - - W 1018,5 45 0,0
27.04.2017 20:00:00 8,6 4,7 - - 13 7 - - WNW 1018,6 50 0,0
27.04.2017 19:00:00 9,9 4,1 - - 11 6 - - WNW 1018,4 50 0,0
27.04.2017 18:00:00 9,4 5,2 - - 13 7 - - NNW 1018,4 45 0,0
27.04.2017 17:00:00 9,9 4,7 - - 11 6 - - NNW 1018,4 50 0,0
27.04.2017 16:00:00 11,8 5,2 - - 21 11 - - W 1018,5 30 0,0
27.04.2017 15:00:00 10,5 4,1 - - 16 9 - - W 1019,0 35 0,0
27.04.2017 14:00:00 11,0 5,2 - - 18 10 - - W 1019,3 35 0,0
27.04.2017 13:00:00 10,5 3,3 - - 15 8 - - W 1019,8 35 0,0
27.04.2017 12:00:00 10,9 3,7 - - 13 7 - - W 1020,1 35 0,0
27.04.2017 11:00:00 9,2 2,9 - - 11 6 - - WNW 1020,8 40 0,0
27.04.2017 10:00:00 8,2 2,2 9,7 10,0 13 7 - - W 1021,2 35 0,0
27.04.2017 09:00:00 6,0 1,1 - - 8 4 - - W 1021,7 24 0,0
27.04.2017 08:00:00 3,0 -0,4 - - 11 6 - - WNW 1022,0 30 0,0
27.04.2017 07:00:00 -0,5 -2,1 - - 8 4 - - SW 1022,0 28 0,0
27.04.2017 06:00:00 -1,6 -2,8 - - 5 3 - - WSW 1022,0 8 0,0
27.04.2017 05:00:00 -0,7 -2,7 - - 8 4 - - WSW 1022,0 7 0,0
27.04.2017 04:00:00 0,2 -2,4 - - 9 5 - - W 1022,3 35 0,0
27.04.2017 03:00:00 -0,1 -2,2 - - 5 3 - - WSW 1022,4 13 0,0
27.04.2017 02:00:00 -0,9 -3,2 - - 4 2 - - SW 1022,6 11 0,0
27.04.2017 01:00:00 0,6 -2,5 - - 5 3 - - W 1022,7 16 0,0
27.04.2017 00:00:00 0,3 -2,9 - - 5 3 - - WNW 1022,7 40 0,0
26.04.2017 23:00:00 2,0 -3,1 - - 4 2 - - W 1022,6 35 0,0
26.04.2017 22:00:00 3,5 -2,9 - - 8 4 - - WNW 1022,3 35 0,0
26.04.2017 21:00:00 6,6 -3,6 - - 13 7 - - N 1021,6 45 0,0
26.04.2017 20:00:00 7,5 -3,5 - - 11 6 - - N 1020,9 50 0,0
26.04.2017 19:00:00 8,3 -3,3 - - 11 6 - - N 1020,4 27 0,0
26.04.2017 18:00:00 9,1 -3,2 - - 8 4 - - N 1020,3 40 0,0
26.04.2017 17:00:00 10,6 -1,8 - - 11 6 - - NW 1020,1 16 0,0
26.04.2017 16:00:00 10,0 -2,4 - - 16 9 - - N 1020,4 35 0,0
26.04.2017 15:00:00 9,9 -0,7 - - 13 7 - - N 1020,4 30 0,0
26.04.2017 14:00:00 9,1 -1,7 - - 16 9 - - NNE 1020,7 35 0,0
26.04.2017 13:00:00 8,4 -2,0 - - 15 8 - - N 1020,8 40 0,0
26.04.2017 12:00:00 8,8 0,3 - - 16 9 - - N 1020,7 35 0,0
26.04.2017 11:00:00 7,6 0,9 - - 13 7 - - N 1020,7 29 0,0
26.04.2017 10:00:00 7,3 1,8 9,9 10,0 15 8 - - NNE 1021,0 29 0,0
26.04.2017 09:00:00 5,1 -0,1 - - 13 7 - - NNW 1020,9 23 0,0
26.04.2017 08:00:00 3,9 -0,6 - - 11 6 - - NNW 1020,5 29 0,0
26.04.2017 07:00:00 2,8 -1,1 - - 16 9 - - NNW 1020,1 25 0,0
26.04.2017 06:00:00 1,8 -1,3 - - 9 5 - - NNW 1019,9 24 0,0
26.04.2017 05:00:00 2,5 -0,8 - - 13 7 - - NNW 1019,4 26 0,0
26.04.2017 04:00:00 2,4 -0,5 - - 11 6 - - NNW 1019,2 35 0,0
26.04.2017 03:00:00 1,9 -0,4 - - 11 6 - - NW 1019,4 45 0,0
26.04.2017 02:00:00 3,1 -0,4 - - 15 8 - - N 1019,4 45 0,0
26.04.2017 01:00:00 3,2 0,9 - - 13 7 - - NNW 1019,2 50 0,0
26.04.2017 00:00:00 2,4 0,7 - - 9 5 - - NW 1018,9 45 0,0
25.04.2017 23:00:00 1,8 0,9 - - 9 5 - - NW 1018,5 45 0,0
25.04.2017 22:00:00 2,4 1,0 - - 8 4 - - WNW 1018,1 45 0,0
25.04.2017 21:00:00 3,1 2,0 - - 9 5 - - NW 1017,6 40 0,0
25.04.2017 20:00:00 4,0 2,0 - - 16 9 - - NNW 1017,4 40 1,6
25.04.2017 19:00:00 6,1 -0,7 - - 22 12 50 27 NNE 1016,2 40 0,0
25.04.2017 18:00:00 9,2 -1,1 - - 15 8 - - NNW 1015,6 40 0,0
25.04.2017 17:00:00 7,5 0,0 - - 13 7 46 25 NNW 1015,8 50 0,0
25.04.2017 16:00:00 9,0 -0,8 - - 18 10 - - NNW 1015,7 21 0,0
25.04.2017 15:00:00 7,3 -2,5 - - 21 11 - - N 1015,9 30 0,0
25.04.2017 14:00:00 7,6 -3,1 - - 13 7 - - NNE 1016,0 30 0,0
25.04.2017 13:00:00 8,9 -1,6 - - 16 9 - - NW 1016,0 45 0,0
25.04.2017 12:00:00 7,6 -1,7 - - 16 9 - - NW 1016,5 35 0,0
25.04.2017 11:00:00 6,7 -1,7 - - 16 9 - - NNW 1016,5 35 0,0
25.04.2017 10:00:00 5,7 -0,8 10,4 9,9 13 7 - - NNW 1016,5 45 0,0
25.04.2017 09:00:00 5,3 -0,4 - - 15 8 - - N 1016,2 45 0,0
25.04.2017 08:00:00 4,5 0,7 - - 9 5 - - WNW 1015,8 40 0,0
25.04.2017 07:00:00 2,9 0,0 - - 9 5 - - NW 1015,2 40 0,0
25.04.2017 06:00:00 2,4 -1,2 - - 16 9 - - WNW 1014,3 35 0,0
25.04.2017 05:00:00 1,6 -1,5 - - 13 7 - - NW 1014,2 30 0,0
25.04.2017 04:00:00 0,9 -2,9 - - 11 6 - - WNW 1014,5 30 0,0
25.04.2017 03:00:00 0,3 -3,5 - - 9 5 - - WNW 1014,9 30 0,0
25.04.2017 02:00:00 1,5 -4,1 - - 11 6 - - W 1015,6 35 0,0
25.04.2017 01:00:00 0,9 -3,9 - - 9 5 - - W 1016,3 29 0,0
25.04.2017 00:00:00 2,6 -4,6 - - 5 3 - - NW 1016,6 28 0,0
24.04.2017 23:00:00 4,6 -3,5 - - 13 7 - - NNW 1016,7 20 0,0
24.04.2017 22:00:00 5,6 -4,7 - - 13 7 - - NW 1016,5 50 0,0
24.04.2017 21:00:00 6,5 -6,4 - - 15 8 - - NW 1016,1 50 0,0
24.04.2017 20:00:00 7,2 -2,3 - - 16 9 - - NW 1015,8 40 0,0
24.04.2017 19:00:00 8,2 1,1 - - 16 9 - - NNW 1015,6 50 0,0
24.04.2017 18:00:00 8,5 4,6 - - 15 8 - - N 1015,4 30 0,2
24.04.2017 17:00:00 10,5 5,6 - - 16 9 - - NW 1014,8 30 0,0
24.04.2017 16:00:00 12,6 5,8 - - 22 12 - - W 1014,5 24 0,0
24.04.2017 15:00:00 13,1 5,9 - - 18 10 - - W 1014,7 45 0,0
24.04.2017 14:00:00 11,3 7,0 - - 15 8 - - W 1015,7 50 0,0
24.04.2017 13:00:00 11,3 7,2 - - 15 8 - - W 1016,3 45 0,0
24.04.2017 12:00:00 11,3 7,7 - - 9 5 - - W 1016,8 27 0,0
24.04.2017 11:00:00 10,3 8,0 - - 8 4 - - WSW 1017,5 20 0,0
24.04.2017 10:00:00 10,0 7,9 10,9 9,9 9 5 - - W 1017,8 29 0,0
24.04.2017 09:00:00 9,4 7,6 - - 8 4 - - W 1018,1 12 0,0
24.04.2017 08:00:00 9,3 7,1 - - 9 5 - - W 1018,4 9 0,0
24.04.2017 07:00:00 9,0 5,9 - - 11 6 - - W 1018,5 35 0,0
24.04.2017 06:00:00 8,5 5,0 - - 11 6 - - W 1018,9 35 0,0
24.04.2017 05:00:00 8,2 5,1 - - 9 5 - - WNW 1019,4 50 0,0
24.04.2017 04:00:00 6,0 4,6 - - 4 2 - - SW 1020,2 40 0,0
24.04.2017 03:00:00 5,0 3,5 - - 5 3 - - W 1020,9 35 0,0
24.04.2017 02:00:00 6,0 3,8 - - 8 4 - - W 1021,6 45 0,0
24.04.2017 01:00:00 6,3 3,9 - - 5 3 - - WSW 1022,3 45 0,0
24.04.2017 00:00:00 6,4 3,5 - - 8 4 - - W 1022,7 40 0,0
23.04.2017 23:00:00 7,0 3,2 - - 8 4 - - WNW 1022,9 50 0,0
23.04.2017 22:00:00 7,5 3,2 - - 5 3 - - W 1023,3 40 0,0
23.04.2017 21:00:00 9,2 2,9 - - 5 3 - - WNW 1023,3 50 0,0
23.04.2017 20:00:00 12,4 2,7 - - 8 4 - - W 1023,0 40 0,0
23.04.2017 19:00:00 14,7 3,5 - - 11 6 - - WNW 1023,2 35 0,0
23.04.2017 18:00:00 14,6 4,3 - - 8 4 - - WNW 1023,5 40 0,0
23.04.2017 17:00:00 15,9 5,1 - - 9 5 - - W 1023,9 16 0,0
23.04.2017 16:00:00 16,4 5,2 - - 13 7 - - W 1024,6 35 0,0
23.04.2017 15:00:00 14,9 5,8 - - 13 7 - - W 1025,2 30 0,0
23.04.2017 14:00:00 14,2 6,5 - - 8 4 - - W 1026,0 25 0,0
23.04.2017 13:00:00 13,3 4,6 - - 5 3 - - W 1026,7 20 0,0
23.04.2017 12:00:00 12,0 4,2 - - 4 2 - - ESE 1027,4 30 0,0
23.04.2017 11:00:00 12,1 4,3 - - 4 2 - - W 1027,9 24 0,0
23.04.2017 10:00:00 11,7 4,9 11,0 9,7 4 2 - - SE 1028,0 21 0,0
23.04.2017 09:00:00 9,8 3,8 - - 2 1 - - SW 1028,4 25 0,0
23.04.2017 08:00:00 8,0 4,6 - - 2 1 - - ESE 1028,6 20 0,0
23.04.2017 07:00:00 6,5 4,9 - - 2 1 - - SSW 1028,5 28 0,0
23.04.2017 06:00:00 5,8 3,9 - - 2 1 - - NNW 1028,4 30 0,0

tt = temperature
td = dewpoint
tt -20cm = temperature -20cm
tt -100cm = temperature -100cm
ff = wind speed
fx = gusts
dd = wind direction
ppp = reduced air pressure
vv = visibility
rr = precipitation

Next stations